H1 CPF 1 NER 2011 12 31 9 8651 glonass103 H2 0606202 9103 29671 2011 12 31 0 0 0 2012 1 3 23 45 0 900 1 1 0 0 0 H9 10 0 55926 0.00000 0 10382782.298 -6328075.575 22426736.434 10 0 55926 900.00000 0 10296184.179 -3516498.315 23067355.243 10 0 55926 1800.00000 0 10426477.447 -654523.443 23259827.254 10 0 55926 2700.00000 0 10773442.599 2186002.184 23000084.207 10 0 55926 3600.00000 0 11324197.751 4934337.622 22292854.189 10 0 55926 4500.00000 0 12053712.106 7523556.826 21151594.697 10 0 55926 5400.00000 0 12925851.843 9893104.015 19598253.856 10 0 55926 6300.00000 0 13894916.576 11991088.299 17662862.428 10 0 55926 7200.00000 0 14907603.021 13776220.673 15382962.909 10 0 55926 8100.00000 0 15905313.740 15219311.095 12802885.542 10 0 55926 9000.00000 0 16826713.331 16304261.720 9972884.585 10 0 55926 9900.00000 0 17610423.016 17028513.512 6948151.688 10 0 55926 10800.00000 0 18197737.960 17402927.040 3787726.204 10 0 55926 11700.00000 0 18535250.103 17451102.672 553324.963 10 0 55926 12600.00000 0 18577262.969 17208169.806 -2691883.710 10 0 55926 13500.00000 0 18287893.819 16719098.018 -5884535.640 10 0 55926 14400.00000 0 17642772.043 16036603.850 -8962329.206 10 0 55926 15300.00000 0 16630260.469 15218744.486 -11865259.559 10 0 55926 16200.00000 0 15252147.152 14326302.973 -14536802.613 10 0 55926 17100.00000 0 13523778.368 13420078.167 -16925024.227 10 0 55926 18000.00000 0 11473627.879 12558196.135 -18983592.080 10 0 55926 18900.00000 0 9142321.695 11793557.964 -20672670.442 10 0 55926 19800.00000 0 6581160.684 11171532.200 -21959681.096 10 0 55926 20700.00000 0 3850204.374 10727988.846 -22819916.823 10 0 55926 21600.00000 0 1015997.214 10487756.450 -23236997.365 10 0 55926 22500.00000 0 -1850967.220 10463565.313 -23203161.116 10 0 55926 23400.00000 0 -4678938.340 10655518.909 -22719389.116 10 0 55926 24300.00000 0 -7397645.777 11051113.258 -21795361.095 10 0 55926 25200.00000 0 -9940969.462 11625801.096 -20449246.327 10 0 55926 26100.00000 0 -12249433.716 12344075.250 -18707334.838 10 0 55926 27000.00000 0 -14272424.420 13161024.353 -16603517.152 10 0 55926 27900.00000 0 -15970040.087 14024294.977 -14178623.098 10 0 55926 28800.00000 0 -17314502.792 14876377.798 -11479632.523 10 0 55926 29700.00000 0 -18291073.074 15657122.452 -8558772.700 10 0 55926 30600.00000 0 -18898433.152 16306376.585 -5472519.001 10 0 55926 31500.00000 0 -19148524.278 16766639.627 -2280517.135 10 0 55926 32400.00000 0 -19065846.353 16985621.258 955553.569 10 0 55926 33300.00000 0 -18686249.632 16918598.343 4173155.285 10 0 55926 34200.00000 0 -18055269.056 16530472.270 7310083.818 10 0 55926 35100.00000 0 -17226070.404 15797440.638 10305656.089 10 0 55926 36000.00000 0 -16257093.360 14708212.826 13101871.257 10 0 55926 36900.00000 0 -15209489.133 13264717.468 15644524.030 10 0 55926 37800.00000 0 -14144458.866 11482270.425 17884249.458 10 0 55926 38700.00000 0 -13120603.404 9389193.821 19777479.613 10 0 55926 39600.00000 0 -12191394.885 7025899.239 21287293.762 10 0 55926 40500.00000 0 -11402875.935 4443470.167 22384145.498 10 0 55926 41400.00000 0 -10791683.295 1701799.526 23046452.199 10 0 55926 42300.00000 0 -10383479.696 -1132643.076 23261034.403 10 0 55926 43200.00000 0 -10191861.193 -3989324.082 23023395.305 10 0 55926 44100.00000 0 -10217787.684 -6796336.178 22337833.236 10 0 55926 45000.00000 0 -10449562.641 -9483155.165 21217383.103 10 0 55926 45900.00000 0 -10863364.994 -11983349.224 19683585.902 10 0 55926 46800.00000 0 -11424312.710 -14237127.437 17766088.850 10 0 55926 47700.00000 0 -12088014.702 -16193620.268 15502082.242 10 0 55926 48600.00000 0 -12802546.418 -17812795.403 12935582.680 10 0 55926 49500.00000 0 -13510765.751 -19066927.360 10116575.867 10 0 55926 50400.00000 0 -14152870.566 -19941557.771 7100035.605 10 0 55926 51300.00000 0 -14669088.138 -20435905.117 3944838.725 10 0 55926 52200.00000 0 -15002380.461 -20562706.306 712598.314 10 0 55926 53100.00000 0 -15101048.331 -20347497.119 -2533560.066 10 0 55926 54000.00000 0 -14921121.287 -19827363.132 -5730253.148 10 0 55926 54900.00000 0 -14428429.729 -19049215.738 -8815098.807 10 0 55926 55800.00000 0 -13600269.574 -18067668.565 -11727952.054 10 0 55926 56700.00000 0 -12426587.719 -16942606.769 -14412092.040 10 0 55926 57600.00000 0 -10910637.629 -15736554.597 -16815335.434 10 0 55926 58500.00000 0 -9069077.586 -14511954.740 -18891053.527 10 0 55926 59400.00000 0 -6931508.208 -13328476.044 -20599073.155 10 0 55926 60300.00000 0 -4539469.788 -12240463.924 -21906444.522 10 0 55926 61200.00000 0 -1944942.875 -11294640.891 -22788062.191 10 0 55926 62100.00000 0 791583.966 -10528152.940 -23227128.979 10 0 55926 63000.00000 0 3603397.709 -9967042.131 -23215455.856 10 0 55926 63900.00000 0 6420100.134 -9625207.162 -22753594.247 10 0 55926 64800.00000 0 9170297.478 -9503892.835 -21850800.327 10 0 55926 65700.00000 0 11784329.721 -9591727.045 -20524833.924 10 0 55926 66600.00000 0 14196927.700 -9865301.274 -18801597.423 10 0 55926 67500.00000 0 16349689.950 -10290268.127 -16714622.738 10 0 55926 68400.00000 0 18193279.009 -10822908.484 -14304416.756 10 0 55926 69300.00000 0 19689248.568 -11412101.745 -11617677.997 10 0 55926 70200.00000 0 20811428.203 -12001616.462 -8706399.202 10 0 55926 71100.00000 0 21546810.483 -12532625.704 -5626872.324 10 0 55926 72000.00000 0 21895905.372 -12946342.481 -2438614.146 10 0 55926 72900.00000 0 21872548.603 -13186665.718 796768.022 10 0 55926 73800.00000 0 21503172.778 -13202726.797 4016750.101 10 0 55926 74700.00000 0 20825571.747 -12951230.646 7159083.064 10 0 55926 75600.00000 0 19887209.561 -12398493.584 10162981.196 10 0 55926 76500.00000 0 18743143.801 -11522092.315 12970285.068 10 0 55926 77400.00000 0 17453649.040 -10312054.171 15526577.732 10 0 55926 78300.00000 0 16081638.564 -8771537.249 17782233.407 10 0 55926 79200.00000 0 14689991.028 -6916969.775 19693378.958 10 0 55926 80100.00000 0 13338892.921 -4777640.205 21222749.718 10 0 55926 81000.00000 0 12083307.444 -2394751.965 22340423.015 10 0 55926 81900.00000 0 10970675.566 180021.053 23024414.653 10 0 55926 82800.00000 0 10038945.936 2886421.288 23261125.855 10 0 55926 83700.00000 0 9315017.060 5657861.009 23045630.709 10 0 55926 84600.00000 0 8813658.375 8423951.185 22381796.892 10 0 55926 85500.00000 0 8536957.198 11113202.083 21282235.465 10 0 55927 0.00000 0 8474316.515 13655784.112 19768078.775 10 0 55927 900.00000 0 8603005.598 15986233.977 17868588.566 10 0 55927 1800.00000 0 8889241.209 18045992.632 15620600.883 10 0 55927 2700.00000 0 9289755.473 19785667.273 13067816.365 10 0 55927 3600.00000 0 9753783.609 21166922.094 10259949.636 10 0 55927 4500.00000 0 10225387.504 22163915.956 7251753.965 10 0 55927 5400.00000 0 10646015.220 22764225.732 4101940.841 10 0 55927 6300.00000 0 10957186.132 22969215.423 872016.712 10 0 55927 7200.00000 0 11103185.415 22793835.273 -2374938.543 10 0 55927 8100.00000 0 11033650.995 22265859.953 -5575525.390 10 0 55927 9000.00000 0 10705940.675 21424599.328 -8667283.882 10 0 55927 9900.00000 0 10087176.877 20319138.232 -11589931.324 10 0 55927 10800.00000 0 9155880.682 19006182.089 -14286552.254 10 0 55927 11700.00000 0 7903125.035 17547601.908 -16704715.989 10 0 55927 12600.00000 0 6333158.114 16007784.721 -18797498.965 10 0 55927 13500.00000 0 4463470.977 14450903.129 -20524391.833 10 0 55927 14400.00000 0 2324307.454 12938220.199 -21852074.211 10 0 55927 15300.00000 0 -42361.871 11525543.468 -22755043.196 10 0 55927 16200.00000 0 -2584357.433 10260934.427 -23216085.198 10 0 55927 17100.00000 0 -5241235.726 9182768.129 -23226584.023 10 0 55927 18000.00000 0 -7946579.784 8318222.064 -22786661.428 10 0 55927 18900.00000 0 -10630539.622 7682254.828 -21905149.644 10 0 55927 19800.00000 0 -13222517.581 7277114.367 -20599398.271 10 0 55927 20700.00000 0 -15653888.046 7092393.417 -18894920.891 10 0 55927 21600.00000 0 -17860640.402 7105627.163 -16824889.279 10 0 55927 22500.00000 0 -19785837.614 7283405.946 -14429485.545 10 0 55927 23400.00000 0 -21381790.657 7582954.917 -11755124.819 10 0 55927 24300.00000 0 -22611860.892 7954113.642 -8853563.071 10 0 55927 25200.00000 0 -23451817.691 8341632.517 -5780906.492 10 0 55927 26100.00000 0 -23890696.685 8687690.054 -2596540.541 10 0 55927 27000.00000 0 -23931124.316 8934526.196 638001.933 10 0 55927 27900.00000 0 -23589096.018 9027082.022 3860213.072 10 0 55927 28800.00000 0 -22893217.513 8915535.933 7007801.529 10 0 55927 29700.00000 0 -21883440.567 8557630.448 10019881.483 10 0 55927 30600.00000 0 -20609345.184 7920692.078 12838137.454 10 0 55927 31500.00000 0 -19128038.823 6983259.159 15407943.329 10 0 55927 32400.00000 0 -17501758.993 5736248.227 17679414.880 10 0 55927 33300.00000 0 -15795277.944 4183608.253 19608375.971 10 0 55927 34200.00000 0 -14073216.584 2342432.924 21157219.974 10 0 55927 35100.00000 0 -12397378.847 242523.254 22295649.607 10 0 55927 36000.00000 0 -10824217.212 -2074584.527 23001280.414 10 0 55927 36900.00000 0 -9402535.267 -4557088.657 23260095.229 10 0 55927 37800.00000 0 -8171523.736 -7144831.051 23066739.566 10 0 55927 38700.00000 0 -7159213.010 -9771569.375 22424650.581 10 0 55927 39600.00000 0 -6381408.290 -12367519.416 21346015.225 10 0 55927 40500.00000 0 -5841153.471 -14862063.245 19851556.448 10 0 55927 41400.00000 0 -5528747.739 -17186510.763 17970149.637 10 0 55927 42300.00000 0 -5422315.583 -19276798.996 15738275.060 10 0 55927 43200.00000 0 -5488907.075 -21076015.313 13199315.625 10 0 55927 44100.00000 0 -5686082.360 -22536637.419 10402712.780 10 0 55927 45000.00000 0 -5963913.061 -23622394.321 7402996.904 10 0 55927 45900.00000 0 -6267314.801 -24309668.445 4258711.574 10 0 55927 46800.00000 0 -6538610.279 -24588378.467 1031253.863 10 0 55927 47700.00000 0 -6720211.884 -24462304.851 -2216344.878 10 0 55927 48600.00000 0 -6757307.461 -23948844.290 -5420671.813 10 0 55927 49500.00000 0 -6600432.520 -23078204.123 -8519192.184 10 0 55927 50400.00000 0 -6207817.353 -21892072.217 -11451488.642 10 0 55927 51300.00000 0 -5547407.524 -20441820.535 -14160454.146 10 0 55927 52200.00000 0 -4598470.741 -18786320.543 -16593413.591 10 0 55927 53100.00000 0 -3352721.548 -16989465.055 -18703151.296 10 0 55927 54000.00000 0 -1814916.328 -15117502.982 -20448824.167 10 0 55927 54900.00000 0 -2894.176 -13236300.675 -21796743.297 10 0 55927 55800.00000 0 2052937.011 -11408645.723 -22721009.930 10 0 55927 56700.00000 0 4310646.461 -9691706.131 -23203995.188 10 0 55927 57600.00000 0 6718313.535 -8134750.244 -23236656.337 10 0 55927 58500.00000 0 9215982.836 -6777220.947 -22818685.631 10 0 55927 59400.00000 0 11737959.433 -5647242.026 -21958491.075 10 0 55927 60300.00000 0 14215348.806 -4760616.049 -20673011.377 10 0 55927 61200.00000 0 16578736.457 -4120352.507 -18987370.262 10 0 55927 62100.00000 0 18760897.136 -3716742.797 -16934377.942 10 0 55927 63000.00000 0 20699422.852 -3527976.241 -14553889.928 10 0 55927 63900.00000 0 22339162.439 -3521269.246 -11892035.720 10 0 55927 64800.00000 0 23634373.466 -3654458.867 -9000331.884 10 0 55927 65700.00000 0 24550499.095 -3877993.253 -5934695.822 10 0 55927 66600.00000 0 25065497.728 -4137235.427 -2754378.337 10 0 55927 67500.00000 0 25170671.510 -4374984.161 479165.738 10 0 55927 68400.00000 0 24870960.033 -4534106.831 3703448.403 10 0 55927 69300.00000 0 24184687.299 -4560174.595 6856139.582 10 0 55927 70200.00000 0 23142772.199 -4403989.948 9876256.773 10 0 55927 71100.00000 0 21787434.648 -4023900.928 12705331.577 10 0 55927 72000.00000 0 20170450.099 -3387804.785 15288531.503 10 0 55927 72900.00000 0 18351023.786 -2474756.327 17575716.262 10 0 55927 73800.00000 0 16393371.664 -1276112.084 19522408.698 10 0 55927 74700.00000 0 14364107.448 203839.644 21090661.771 10 0 55927 75600.00000 0 12329543.300 1947791.981 22249804.742 10 0 55927 76500.00000 0 10353015.720 3925882.656 22977053.636 10 0 55927 77400.00000 0 8492347.692 6096691.192 23257973.231 10 0 55927 78300.00000 0 6797552.878 8408731.845 23086780.394 10 0 55927 79200.00000 0 5308878.187 10802383.140 22466481.259 10 0 55927 80100.00000 0 4055267.458 13212176.023 21408837.747 10 0 55927 81000.00000 0 3053311.692 15569347.016 19934162.128 10 0 55927 81900.00000 0 2306731.153 17804550.840 18070941.642 10 0 55927 82800.00000 0 1806412.338 19850619.155 15855298.784 10 0 55927 83700.00000 0 1530999.194 21645249.340 13330296.378 10 0 55927 84600.00000 0 1448014.117 23133509.291 10545100.093 10 0 55927 85500.00000 0 1515461.295 24270051.231 7554014.601 10 0 55928 0.00000 0 1683843.711 25020939.626 4415412.647 10 0 55928 900.00000 0 1898506.728 25365014.216 1190578.699 10 0 55928 1800.00000 0 2102207.163 25294730.080 -2057507.509 10 0 55928 2700.00000 0 2237795.560 24816437.267 -5265422.923 10 0 55928 3600.00000 0 2250895.922 23950089.764 -8370560.939 10 0 55928 4500.00000 0 2092465.953 22728395.852 -11312372.299 10 0 55928 5400.00000 0 1721127.209 21195447.767 -14033560.833 10 0 55928 6300.00000 0 1105164.590 19404890.344 -16481209.144 10 0 55928 7200.00000 0 224109.543 17417708.127 -18607811.239 10 0 55928 8100.00000 0 -930160.226 15299726.239 -20372191.762 10 0 55928 9000.00000 0 -2352850.592 13118931.790 -21740294.462 10 0 55928 9900.00000 0 -4026233.453 10942729.403 -22685825.608 10 0 55928 10800.00000 0 -5920181.318 8835246.101 -23190741.626 10 0 55928 11700.00000 0 -7993230.357 6854797.647 -23245573.516 10 0 55928 12600.00000 0 -10194126.204 5051620.741 -22849583.948 10 0 55928 13500.00000 0 -12463787.187 3465963.366 -22010756.236 10 0 55928 14400.00000 0 -14737602.795 2126610.025 -20745617.313 10 0 55928 15300.00000 0 -16947971.841 1049900.201 -19078899.757 10 0 55928 16200.00000 0 -19026975.516 239277.631 -17043050.539 10 0 55928 17100.00000 0 -20909075.477 -314613.875 -14677596.575 10 0 55928 18000.00000 0 -22533726.347 -633294.694 -12028379.491 10 0 55928 18900.00000 0 -23847795.877 -749302.336 -9146674.014 10 0 55928 19800.00000 0 -24807693.955 -704582.438 -6088206.223 10 0 55928 20700.00000 0 -25381123.477 -548485.795 -2912089.651 10 0 55928 21600.00000 0 -25548381.562 -335455.446 320301.529 10 0 55928 22500.00000 0 -25303157.764 -122500.401 3546501.859 10 0 55928 23400.00000 0 -24652796.303 33438.696 6704145.224 10 0 55928 24300.00000 0 -23618011.151 78122.100 9732155.130 10 0 55928 25200.00000 0 -22232065.020 -37468.204 12571912.908 10 0 55928 26100.00000 0 -20539445.194 -354824.985 15168382.238 10 0 55928 27000.00000 0 -18594089.788 -905926.490 17471169.148 10 0 55928 27900.00000 0 -16457236.447 -1711645.824 19435497.588 10 0 55928 28800.00000 0 -14194981.325 -2780627.201 21023081.927 10 0 55928 29700.00000 0 -11875648.231 -4108678.411 22202879.403 10 0 55928 30600.00000 0 -9567076.059 -5678707.762 22951707.556 10 0 55928 31500.00000 0 -7333936.534 -7461211.251 23254713.726 10 0 55928 32400.00000 0 -5235193.452 -9415292.954 23105686.334 10 0 55928 33300.00000 0 -3321809.326 -11490179.237 22507200.320 10 0 55928 34200.00000 0 -1634795.716 -13627166.308 21470592.049 10 0 55928 35100.00000 0 -203689.497 -15761921.980 20015762.249 10 0 55928 36000.00000 0 954480.013 -17827046.869 18170808.845 10 0 55928 36900.00000 0 1835688.613 -19754788.342 15971495.076 10 0 55928 37800.00000 0 2448857.567 -21479793.211 13460561.910 10 0 55928 38700.00000 0 2815238.687 -22941782.620 10686897.200 10 0 55928 39600.00000 0 2967269.953 -24088034.964 7704577.619 10 0 55928 40500.00000 0 2946950.663 -24875570.405 4571802.470 10 0 55928 41400.00000 0 2803806.154 -25272942.892 1349741.249 10 0 55928 42300.00000 0 2592530.241 -25261562.264 -1898680.769 10 0 55928 43200.00000 0 2370407.808 -24836489.390 -5110033.117 10 0 55928 44100.00000 0 2194629.639 -24006670.171 -8221640.169 10 0 55928 45000.00000 0 2119616.159 -22794598.740 -11172823.580 10 0 55928 45900.00000 0 2194466.129 -21235425.033 -13906100.843 10 0 55928 46800.00000 0 2460640.491 -19375545.949 -16368314.961 10 0 55928 47700.00000 0 2949980.771 -17270741.441 -18511672.135 10 0 55928 48600.00000 0 3683146.469 -14983936.024 -20294667.004 10 0 55928 49500.00000 0 4668537.299 -12582681.544 -21682877.885 10 0 55928 50400.00000 0 5901744.905 -10136468.194 -22649617.597 10 0 55928 51300.00000 0 7365555.933 -7713976.976 -23176428.957 10 0 55928 52200.00000 0 9030504.912 -5380388.172 -23253417.338 10 0 55928 53100.00000 0 10855952.306 -3194857.150 -22879416.056 10 0 55928 54000.00000 0 12791641.509 -1208260.739 -22061983.570 10 0 55928 54900.00000 0 14779668.954 538694.621 -20817234.514 10 0 55928 55800.00000 0 16756784.906 2016927.195 -19169509.458 10 0 55928 56700.00000 0 18656929.321 3209939.551 -17150890.928 10 0 55928 57600.00000 0 20413898.045 4114246.775 -14800575.689 10 0 55928 58500.00000 0 21964029.509 4739258.334 -12164115.557 10 0 55928 59400.00000 0 23248801.640 5106621.090 -9292541.118 10 0 55928 60300.00000 0 24217232.494 5249052.712 -6241384.463 10 0 55928 61200.00000 0 24827986.122 5208715.424 -3069618.879 10 0 55928 62100.00000 0 25051097.264 5035198.661 161465.330 10 0 55928 63000.00000 0 24869243.830 4783195.096 3389428.577 10 0 55928 63900.00000 0 24278514.484 4509966.953 6551872.049 10 0 55928 64800.00000 0 23288639.103 4272708.224 9587628.502 10 0 55928 65700.00000 0 21922671.667 4125912.767 12437932.041 10 0 55928 66600.00000 0 20216137.494 4118858.236 15047545.306 10 0 55928 67500.00000 0 18215678.579 4293311.333 17365823.132 10 0 55928 68400.00000 0 15977251.398 4681551.097 19347692.749 10 0 55928 69300.00000 0 13563950.096 5304794.167 20954531.767 10 0 55928 70200.00000 0 11043543.543 6172089.761 22154926.909 10 0 55928 71100.00000 0 8485826.844 7279732.997 22925298.375 10 0 55928 72000.00000 0 5959896.079 8611223.878 23250376.841 10 0 55928 72900.00000 0 3531458.651 10137776.787 23123522.657 10 0 55928 73800.00000 0 1260290.745 11819362.315 22546879.500 10 0 55928 74700.00000 0 -802051.963 13606240.744 21531357.652 10 0 55928 75600.00000 0 -2614174.348 15440925.486 20096445.313 10 0 55928 76500.00000 0 -4146350.650 17260496.088 18269849.642 10 0 55928 77400.00000 0 -5381537.765 18999164.784 16086972.780 10 0 55928 78300.00000 0 -6315849.528 20590989.004 13590231.632 10 0 55928 79200.00000 0 -6958471.284 21972615.144 10828233.733 10 0 55928 80100.00000 0 -7331017.982 23085936.637 7854825.025 10 0 55928 81000.00000 0 -7466363.197 23880552.402 4728028.524 10 0 55928 81900.00000 0 -7406989.583 24315919.796 1508895.584 10 0 55928 82800.00000 0 -7202932.190 24363109.036 -1739706.030 10 0 55928 83700.00000 0 -6909404.080 24006083.231 -4954341.549 10 0 55928 84600.00000 0 -6584207.573 23242448.786 -8072269.378 10 0 55928 85500.00000 0 -6285043.692 22083644.042 -11032684.988 10 0 55929 0.00000 0 -6066836.569 20554558.590 -13777922.159 10 0 55929 900.00000 0 -5979188.803 18692600.045 -16254586.800 10 0 55929 1800.00000 0 -6064076.252 16546249.990 -18414599.369 10 0 55929 2700.00000 0 -6353882.360 14173170.536 -20216126.267 10 0 55929 3600.00000 0 -6869853.400 11637943.754 -21624381.840 10 0 55929 4500.00000 0 -7621040.408 9009539.820 -22612286.600 10 0 55929 5400.00000 0 -8603770.642 6358620.860 -23160970.569 10 0 55929 6300.00000 0 -9801669.398 3754793.230 -23260113.977 10 0 55929 7200.00000 0 -11186229.521 1263922.242 -22908120.889 10 0 55929 8100.00000 0 -12717903.225 -1054380.377 -22112124.612 10 0 55929 9000.00000 0 -14347669.305 -3148994.040 -20887826.765 10 0 55929 9900.00000 0 -16019009.459 -4979161.573 -19259174.757 10 0 55929 10800.00000 0 -17670211.010 -6515921.594 -17257885.129 10 0 55929 11700.00000 0 -19236900.342 -7743044.733 -14922822.578 10 0 55929 12600.00000 0 -20654702.160 -8657437.799 -12299246.923 10 0 55929 13500.00000 0 -21861914.952 -9269001.887 -9437942.184 10 0 55929 14400.00000 0 -22802092.474 -9599952.527 -6394243.877 10 0 55929 15300.00000 0 -23426424.991 -9683631.850 -3226982.345 10 0 55929 16200.00000 0 -23695822.235 -9562863.284 2638.754 10 0 55929 17100.00000 0 -23582612.019 -9287917.944 3232208.546 10 0 55929 18000.00000 0 -23071784.103 -8914177.596 6399298.400 10 0 55929 18900.00000 0 -22161727.222 -8499591.570 9442653.203 10 0 55929 19800.00000 0 -20864427.798 -8102033.509 12303362.693 10 0 55929 20700.00000 0 -19205120.710 -7776668.121 14925991.205 10 0 55929 21600.00000 0 -17221404.879 -7573437.953 17259644.930 10 0 55929 22500.00000 0 -14961858.241 -7534775.584 19258956.650 10 0 55929 23400.00000 0 -12484207.438 -7693637.688 20884969.146 10 0 55929 24300.00000 0 -9853125.895 -8071944.540 22105900.140 10 0 55929 25200.00000 0 -7137749.550 -8679492.110 22897773.573 10 0 55929 26100.00000 0 -4409011.658 -9513384.639 23244904.085 10 0 55929 27000.00000 0 -1736905.943 -10558014.144 23140224.166 10 0 55929 27900.00000 0 812208.990 -11785590.648 22585446.041 10 0 55929 28800.00000 0 3178152.046 -13157203.758 21591053.374 10 0 55929 29700.00000 0 5309202.683 -14624373.660 20176120.974 10 0 55929 30600.00000 0 7164028.685 -16131028.560 18367964.079 10 0 55929 31500.00000 0 8713176.979 -17615826.807 16201622.260 10 0 55929 32400.00000 0 9940064.056 -19014726.627 13719186.596 10 0 55929 33300.00000 0 10841423.439 -20263694.946 10968982.228 10 0 55929 34200.00000 0 11427190.747 -21301439.947 8004622.009 10 0 55929 35100.00000 0 11719831.181 -22072050.333 4883950.037 10 0 55929 36000.00000 0 11753138.412 -22527427.608 1667896.702 10 0 55929 36900.00000 0 11570556.959 -22629406.291 -1580730.703 10 0 55929 37800.00000 0 11223101.051 -22351470.319 -4798496.121 10 0 55929 38700.00000 0 10766960.611 -21679991.346 -7922594.982 10 0 55929 39600.00000 0 10260898.596 -20614935.608 -10892099.502 10 0 55929 40500.00000 0 9763552.740 -19170009.213 -13649162.662 10 0 55929 41400.00000 0 9330758.557 -17372236.176 -16140155.707 10 0 55929 42300.00000 0 9013008.873 -15260988.116 -18316715.835 10 0 55929 43200.00000 0 8853158.602 -12886507.945 -20136683.346 10 0 55929 44100.00000 0 8884472.153 -10307991.205 -21564910.374 10 0 55929 45000.00000 0 9129095.431 -7591307.071 -22573926.487 10 0 55929 45900.00000 0 9597015.713 -4806455.461 -23144449.849 10 0 55929 46800.00000 0 10285551.521 -2024866.944 -23265736.045 10 0 55929 47700.00000 0 11179391.996 683342.218 -22935759.968 10 0 55929 48600.00000 0 12251182.181 3252046.678 -22161229.474 10 0 55929 49500.00000 0 13462628.016 5621610.872 -20957432.512 10 0 55929 50400.00000 0 14766073.416 7741108.674 -19347922.366 10 0 55929 51300.00000 0 16106482.778 9570174.624 -17364048.306 10 0 55929 52200.00000 0 17423745.829 11080412.978 -15044341.397 10 0 55929 53100.00000 0 18655208.910 12256309.081 -12433767.566 10 0 55929 54000.00000 0 19738327.780 13095608.096 -9582862.072 10 0 55929 54900.00000 0 20613332.324 13609147.762 -6546761.365 10 0 55929 55800.00000 0 21225793.068 13820153.989 -3384150.089 10 0 55929 56700.00000 0 21528983.551 13763029.972 -156142.298 10 0 55929 57600.00000 0 21485940.792 13481689.964 3074882.910 10 0 55929 58500.00000 0 21071138.299 13027507.406 6246470.172 10 0 55929 59400.00000 0 20271701.738 12456962.866 9297279.522 10 0 55929 60300.00000 0 19088115.865 11829089.568 12168259.176 10 0 55929 61200.00000 0 17534391.967 11202822.714 14803777.822 10 0 55929 62100.00000 0 15637687.016 10634363.006 17152695.417 10 0 55929 63000.00000 0 13437388.086 10174664.451 19169352.451 10 0 55929 63900.00000 0 10983697.616 9867151.771 20814458.748 10 0 55929 64800.00000 0 8335775.626 9745763.653 22055864.620 10 0 55929 65700.00000 0 5559513.484 9833404.999 22869199.030 10 0 55929 66600.00000 0 2725029.397 10140874.763 23238361.523 10 0 55929 67500.00000 0 -96012.228 10666316.481 23155857.280 10 0 55929 68400.00000 0 -2833147.585 11395217.063 22622967.215 10 0 55929 69300.00000 0 -5419812.853 12300956.485 21649748.035 10 0 55929 70200.00000 0 -7795883.953 13345887.826 20254860.351 10 0 55929 71100.00000 0 -9909950.398 14482904.434 18465226.191 10 0 55929 72000.00000 0 -11721227.323 15657429.831 16315520.837 10 0 55929 72900.00000 0 -13201024.640 16809747.457 13847507.435 10 0 55929 73800.00000 0 -14333710.634 17877572.011 11109226.327 10 0 55929 74700.00000 0 -15117128.524 18798753.053 8154054.649 10 0 55929 75600.00000 0 -15562448.072 19513995.084 5039654.801 10 0 55929 76500.00000 0 -15693458.637 19969477.009 1826833.327 10 0 55929 77400.00000 0 -15545334.379 20119257.755 -1421665.880 10 0 55929 78300.00000 0 -15162925.420 19927363.870 -4642408.434 10 0 55929 79200.00000 0 -14598649.495 19369468.682 -7772529.720 10 0 55929 80100.00000 0 -13910075.957 18434090.432 -10750981.552 10 0 55929 81000.00000 0 -13157307.253 17123257.909 -13519738.764 10 0 55929 81900.00000 0 -12400271.347 15452615.344 -16024940.543 10 0 55929 82800.00000 0 -11696041.899 13450962.784 -18217943.024 10 0 55929 83700.00000 0 -11096301.043 11159252.398 -20056262.330 10 0 55929 84600.00000 0 -10645052.626 8629084.305 -21504390.003 10 0 55929 85500.00000 0 -10376682.287 5920766.521 -22534465.939 99